Flag for Germany Weather for the Past 2 Weeks in Radolfzell am Bodensee, Baden-Württemberg, Germany

Now
36 °F

Overcast.


Feels Like: 27 °F
Forecast: 26 / 42 °F
Wind: 12 mph from Southwest

Location: Friedrichshafen Airport

Current Time: Feb 11, 2016 at 2:33:42 AM

Latest Report: Feb 11, 2016 at 1:20 AM


Visibility: N/A

Pressure: 29.74 "Hg

Humidity: 65%

Dew point: 25 °F

Location of Radolfzell am BodenseeLocation

Historic Weather in Radolfzell am Bodensee — Graph

°F

Radolfzell am Bodensee Temperature Yesterday

Maximum temperature yesterday: 39 °F (at 12:50 AM)
Minimum temperature yesterday: 36 °F (at 4:50 AM)
Average temperature yesterday: 37 °F

High & Low Weather Summary for the Past Weeks

 TemperatureHumidityPressure
High55 °F (Feb 1, 1:50 PM)93% (Jan 27, 12:20 AM)30.48 "Hg (Jan 27, 12:20 AM)
Low28 °F (Jan 27, 1:20 AM)47% (Feb 7, 10:50 AM)29.30 "Hg (Feb 9, 5:20 PM)
Average42 °F76%30.08 "Hg
* Reported Jan 27 12:20 AM — Feb 11 12:50 AM, Radolfzell am Bodensee, Weather by CustomWeather, © 2016

Note: Actual official high and low records may vary slightly from our data, if they occured in-between our weather recording intervals... More about our weather records

Advertising

Radolfzell am Bodensee Weather History for the Previous 24 Hours

 ConditionsComfort  
Time TempWeatherWind HumidityBarometerVisibility
12:50 AM
Thu, Feb 11
36 °FOvercast.12 mph65%29.74 "HgN/A
11:50 PM
Wed, Feb 10
37 °FClear.18 mph60%29.71 "Hg10 mi
10:50 PM37 °FMostly cloudy.17 mph60%29.71 "HgN/A
10:20 PM37 °FOvercast.16 mph60%29.71 "HgN/A
9:50 PM37 °FClear.18 mph56%29.68 "Hg10 mi
9:20 PM37 °FClear.16 mph60%29.68 "Hg10 mi
8:50 PM37 °FClear.15 mph56%29.68 "Hg10 mi
8:20 PM39 °FClear.20 mph52%29.65 "Hg10 mi
7:50 PM37 °FClear.18 mph60%29.65 "Hg10 mi
7:20 PM37 °FClear.17 mph60%29.65 "Hg10 mi
6:50 PM39 °FClear.17 mph56%29.65 "Hg10 mi
6:20 PM39 °FClear.20 mph56%29.62 "Hg10 mi
5:50 PM39 °FMostly cloudy.18 mph56%29.62 "HgN/A
5:20 PM39 °FMostly cloudy.18 mph61%29.62 "HgN/A
4:50 PM39 °FMostly cloudy.17 mph56%29.59 "HgN/A
4:20 PM39 °FOvercast.14 mph61%29.59 "HgN/A
3:50 PM37 °FMore clouds than sun.13 mph70%29.59 "HgN/A
3:20 PM37 °FOvercast.15 mph70%29.59 "HgN/A
2:50 PM36 °FSprinkles. More clouds than sun.18 mph75%29.59 "Hg5 mi
2:20 PM37 °FBroken clouds.16 mph70%29.59 "HgN/A
1:50 PM36 °FLight rain. More clouds than sun.16 mph75%29.59 "HgN/A
1:20 PM37 °FBroken clouds.17 mph65%29.59 "HgN/A
12:50 PM37 °FOvercast.21 mph60%29.56 "HgN/A
12:20 PM39 °FMostly cloudy.21 mph56%29.56 "HgN/A
11:50 AM39 °FBroken clouds.17 mph56%29.59 "HgN/A
11:20 AM37 °FMostly cloudy.7 mph65%29.59 "HgN/A
10:50 AM37 °FMore clouds than sun.12 mph70%29.56 "HgN/A
10:20 AM37 °FCloudy.16 mph65%29.56 "HgN/A
9:50 AM36 °FMostly cloudy.15 mph75%29.56 "HgN/A
9:20 AM36 °FCloudy.17 mph75%29.53 "HgN/A
8:50 AM36 °FLight rain. Cloudy.13 mph81%29.53 "HgN/A
8:20 AM36 °FLight rain. Mostly cloudy.15 mph75%29.50 "HgN/A
5:50 AM36 °FSprinkles. Mostly cloudy.17 mph75%29.47 "HgN/A
5:20 AM36 °FOvercast.20 mph75%29.45 "HgN/A
4:50 AM36 °FMostly cloudy.17 mph75%29.45 "HgN/A
4:20 AM37 °FLight rain. Mostly cloudy.21 mph65%29.45 "HgN/A
3:50 AM37 °FDrizzle. Mostly cloudy.18 mph70%29.45 "HgN/A
3:20 AM37 °FMostly cloudy.15 mph65%29.45 "HgN/A
2:50 AM37 °FOvercast.15 mph65%29.45 "HgN/A
2:20 AM37 °FOvercast.14 mph70%29.45 "HgN/A
Weather by CustomWeather, © 2016

See weather overviewHow to use our weather pages